This demonstration page uses our WeatherBlox Daily Observations layout. Learn more.

Left ArrowRight Arrow

Hourly Observations for November 8, 2022

Temp ( °F °C ) Dew Point ( °F °C ) Humidity (%) Winds ( mph kmh ) Pressure ( in mb ) Visibility ( mi km ) Precip ( " mm )
12:56 am 00:56 Cloudy 45 7.2 25 -3.9 45 45 SE 16 26 30.24 1024 10 16 0.00 0.00
1:56 am 01:56 Cloudy 46 7.8 27 -2.8 47 47 SE 14 22 30.22 1023 10 16 0.00 0.00
2:56 am 02:56 Cloudy 47 8.3 29 -1.7 49 49 SE 16 26 30.20 1023 10 16 0.00 0.00
3:56 am 03:56 Cloudy 48 8.9 30 -1.1 49 49 SE 16 26 30.18 1022 10 16 0.00 0.00
4:56 am 04:56 Cloudy 49 9.4 31 -0.6 50 50 SE 16 26 30.17 1022 10 16 0.00 0.00
5:56 am 05:56 Cloudy 49 9.4 33 0.6 54 54 SE 17 28 30.15 1021 10 16 0.00 0.00
6:48 am 06:48 Cloudy 48 9 36 2 61 61 SSE 18 30 30.14 1021 10 16 0.00 0.00
6:56 am 06:56 Cloudy 50 10 37 2.8 61 61 SSE 20 31 30.14 1021 10 16 0.00 0.00
7:56 am 07:56 Cloudy 51 10.6 44 6.7 77 77 SSE 22 35 30.13 1020 10 16 0.00 0.00
8:56 am 08:56 Cloudy 52 11.1 47 8.3 83 83 SSE 21 33 30.14 1021 10 16 0.00 0.00
9:09 am 09:09 Cloudy 54 12 46 8 76 76 SSE 22 35 30.11 1020 10 16 0.00 0.00
9:56 am 09:56 Cloudy 53 11.7 51 10.6 93 93 SSE 21 33 30.13 1020 7 11 0.00 0.00
10:18 am 10:18 Cloudy with Mist and Fog 54 12 52 11 94 94 SSE 23 37 30.10 1019 6 10 0.00 0.00
10:56 am 10:56 Cloudy 54 12.2 53 11.7 97 97 SSE 20 31 30.12 1020 7 11 0.01 0.13
11:56 am 11:56 Cloudy with Mist and Fog 56 13.3 55 12.8 97 97 SSE 22 35 30.08 1019 6 10 0.00 0.00
12:56 pm 12:56 Cloudy 59 15 57 13.9 93 93 SSE 20 31 30.04 1017 8 13 0.00 0.00
1:56 pm 13:56 Cloudy 61 16.1 59 15 93 93 SSE 17 28 30.01 1016 10 16 0.00 0.00
2:29 pm 14:29 Cloudy 63 17 61 16 94 94 SSE 18 30 29.94 1014 10 16 0.00 0.00
2:56 pm 14:56 Cloudy 63 17.2 61 16.1 93 93 SSE 15 24 29.97 1015 10 16 0.00 0.00
3:10 pm 15:10 Cloudy 64 18 61 16 88 88 SSE 17 28 29.92 1013 10 16 0.00 0.00
3:56 pm 15:56 Cloudy 68 20 63 17.2 84 84 S 23 37 29.95 1014 10 16 0.00 0.00
4:56 pm 16:56 Cloudy 67 19.4 62 16.7 84 84 S 28 44 29.92 1013 10 16 0.00 0.00
5:56 pm 17:56 Cloudy 67 19.4 63 17.2 87 87 S 24 39 29.94 1014 10 16 0.00 0.00
6:56 pm 18:56 Cloudy 65 18.3 62 16.7 90 90 SSE 23 37 29.95 1014 10 16 0.00 0.00
7:56 pm 19:56 Cloudy 65 18.3 62 16.7 90 90 S 23 37 29.95 1014 10 16 0.00 0.00
8:56 pm 20:56 Cloudy 66 18.9 63 17.2 90 90 S 24 39 29.94 1014 10 16 0.00 0.00
9:56 pm 21:56 Cloudy 66 18.9 63 17.2 90 90 S 21 33 29.95 1014 10 16 0.00 0.00
10:11 pm 22:11 Cloudy 66 19 63 17 88 88 S 20 31 29.90 1013 10 16 0.00 0.00
10:56 pm 22:56 Cloudy 66 18.9 62 16.7 87 87 S 22 35 29.94 1014 10 16 0.00 0.00
11:47 pm 23:47 Partly Cloudy 64 18 61 16 88 88 S 23 37 29.89 1012 10 16 0.00 0.00
11:56 pm 23:56 Mostly Clear 64 17.8 61 16.1 90 90 S 23 37 29.93 1014 10 16 0.00 0.00

Powered by AerisWeather